Regional Weather Roundup
Issued by NWS Portland, ME

Home | Current Version | Previous Version | Text Only | Print | Product List | Glossary On
Versions: 1 2 3 4 5 6 7 8 9 10 11 12 13 14 15 16 17 18 19 20 21 22 23 24 25 26 27 28 29 30 31 32 33 34 35 36 37 38 39 40 41 42 43 44 45 46 47 48 49 50
000
ASUS41 KGYX 272305
RWRGYX
WEATHER ROUNDUP FOR MAINE AND NEW HAMPSHIRE
NATIONAL WEATHER SERVICE GRAY ME
700 PM EDT WED AUG 27 2014

MEZ002-005-006-010-012-015-018-020-021-024-026-027-029-280000-
MAINE

CITY           SKY/WX    TMP DP  RH WIND       PRES   REMARKS
PORTLAND       PTCLDY    83  67  58 SW9       29.82R
SANFORD        CLEAR     81  66  61 SW5       29.84R
BAR HARBOR     PTCLDY    70  66  88 SW5       29.82S
WISCASSET      MOCLDY    77  69  76 CALM      29.83S
ROCKLAND       PTCLDY    73  66  78 W6        29.80S
FRYEBURG       PTCLDY    76  68  76 SW3       29.84S
LEWISTONAUBURN CLEAR     81  66  61 NW6       29.84R
AUGUSTA        CLEAR     79  63  57 NW3       29.83S
WATERVILLE     MOCLDY    79  66  65 CALM      29.79R
BANGOR         PTCLDY    80  59  48 W6        29.82R
GREENVILLE       N/A     68  59  73 NW7       29.88R
MILLINOCKET    CLEAR     77  57  50 NW9       29.85R
HOULTON        PTCLDY    76  56  49 NW7       29.81R
PRESQUE ISLE   MOCLDY    73  55  53 NW7       29.82R
FRENCHVILLE    MOCLDY    65  54  67 NW7       29.84R
CARIBOU        PTCLDY    69  57  65 N7        29.83R
$$

NHZ002-005-008-009-011-012-014-280000-
NEW HAMPSHIRE

CITY           SKY/WX    TMP DP  RH WIND       PRES   REMARKS
PORTSMOUTH     MOCLDY    83  69  62 VRB2      29.82S
ROCHESTER      CLEAR     82  68  62 CALM      29.84R
NASHUA         MOCLDY    85  70  60 CALM      29.85S
MANCHESTER     MOCLDY    84  68  58 SW7       29.83S
CONCORD        PTCLDY    82  68  62 W6        29.84S
LACONIA        PTCLDY    81  64  57 S3        29.83S
PLYMOUTH       FAIR      77  73  87 W10G16    29.85R
BERLIN         CLEAR     75  59  57 NW5       29.89S
WHITEFIELD     PTCLDY    76  59  55 NW5       29.89R
JAFFREY        PTCLDY    79  67  66 SW3       29.91S
LEBANON        MOCLDY    81  66  60 SW6       29.85S
MT WASHINGTON  FOG       52  52 100 W24         N/A  VSB 1/16
$$

VTZ005-007-008-280000-
VERMONT

CITY           SKY/WX    TMP DP  RH WIND       PRES   REMARKS
ST JOHNSBURY     N/A     74  61  63 MISG      29.88R
MONTPELIER     PTCLDY    72  61  68 N10       29.95R
BURLINGTON     MOCLDY    75  59  57 N13       29.92R
$$

MAZ007-012-024-CTZ003-RIZ002-NYZ038-NYZ072-280000-
SOUTHERN NEW ENGLAND AND NY

CITY           SKY/WX    TMP DP  RH WIND       PRES   REMARKS
BOSTON         PTCLDY    85  67  54 SW16      29.84S
WORCESTER      TSTM      73  64  73 VRB3      29.92R
NANTUCKET      MOCLDY    68  67  96 S5        29.91F FOG
PROVIDENCE     PTCLDY    80  63  55 SW7       29.88S
HARTFORD       TSTM      80  69  69 NW7       29.87R
ALBANY         MOCLDY    79  65  62 NW12      29.91S
NEW YORK CITY  PTCLDY    85  64  49 S12       29.86F
$$

ANZ081-ANZ082-ANZ150-NHZ014-MEZ023>029-280000-
COASTAL MARINE OBSERVATIONS

STATION/POSITION TIME  TEMP    WIND        PRES    WAVE
                       AIR SEA DIR/SP/G            HT/PER
                 (UTC) (F)     (DEG/KT/KT) (MB)    (FT/S)
MATINICUS ROCK   2200          220/ 13/ 14 1009.5R
PORTLAND WX BUOY 2250   67 62  210/  8/  8 1009.5F   3/ 8
WELLS            2200   85 60  270/  4/  9 1009.1S
ISLE OF SHOALS   2200   85     270/ 12/ 13 1009.5R
JEFFREYS LEDGE   2221      67                N/A     4/11
CASHES LEDGE BUO 2250   71 67              1009.4F   6/ 5
$$

.............KEY..............
   WCI - WIND CHILL
   TC  - TEMPERATURE IN CELSIUS
   VSB - VISIBILITY IN MILES
   HX  - HEAT INDEX
   FAIR- INDICATES FEW OR NO CLOUDS BELOW 12,000 FT, WITH NO
         SIGNIFICANT WEATHER AND/OR OBSTRUCTIONS TO VISIBILITY.




USA.gov is the U.S. government's official web portal to all federal, state and local government web resources and services.